OPS 4682 DEB, 38433

Orbit data source: Space-Track

OPS 4682 DEB, 38433 is space debris in LEO originally from a launch on Sat, 03 Apr 1965 UTC launched from the Air Force Western Test Range (AFWTR). Debris objects in space refer to the collection of defunct objects orbiting the Earth. Examples of debris include non-operational satellites, rocket bodies, and fragments generated from explosions, collisions, or faulty payload assembly.

Loading next visibility...
Identifier
38433, 1965-027EN
Orbit
LEO
Country
Flag of USUS
Related business
Manufacturer
Unknown
Mission
Spacecraft
Bus & Motor
Unknown
Mass
Unknown
Launch date (UTC)
1965-04-03 (61 years ago)
Launch vehicle
Unknown
Launch site
Air Force Western Test Range (AFWTR)
Object type
Payload
Rocket body
Debris
Shape & HBR
Unknown shape, 0.1 m
Radar Cross Section
Small (<0.1 m²)

Expand to show TLE details & history
Last TLE update: 1 day ago

TLE from 1 day ago
0 OPS 4682 DEB
1 38433U 65027EN  26104.19731911  .00001175  00000-0  32473-2 0  9991
2 38433  90.2607  11.7115 0033237 355.2312   4.8496 13.12175873623451
Epoch: 2026-04-14T04:44Z
TLE epoch observation values (Epoch: 2026-04-14T04:44:08.371Z)
Latitude
0.00003°
Longitude
98.2996°
Altitude
1,192.501 km
Speed
7.269 km/s
True Right ascension
00h 46m 50s
True Declination
0° 00' 00"
Sunlit
Object was in daylight at epoch
Visualization orbit readout
Latitude
Unknown
Longitude
Unknown
Altitude
Unknown
Speed
Unknown
Apparent Right ascension
Unknown
Apparent Declination
Unknown
Sunlit
N/A
Visualization observer readout
Local Sidereal Time
19:15:00
Azimuth
Unknown
Elevation
Unknown
Doppler factor
Unknown
Orbital elements
Apogee altitude
1,237.086 km
Perigee altitude
1,186.632 km
Semi-major axis
7,589.996 km
Eccentricity
0.00332
Inclination
90.2607°
RAAN
11.7115°
Arg. of periapsis
355.2312°
True anomaly
4.88193°
Mean anomaly
4.8496°
Eccentric anomaly
4.86575°
Mean motion
3.28232 °/min
Orbital period
109.68 mins
BSTAR
0.0032473
Loading maneuver chart data...
Computing Atmospheric mass density...
Loading historical data...
Loading historical data...
Loading historical data...
Loading historical data...
Loading historical data...
Loading historical data...
Loading historical data...

Documentation

Showing up to 5 results
|